SL-14 R/B

Last updated on Fri Dec 19 2025 00:02:16 GMT+0000 (Coordinated Universal Time)

1 21423U 91042B 25352.25192546 .00000378 00000+0 44895-4 0 9990 2 21423 82.4932 296.5541 0017918 144.3264 215.9152 14.81743971841018
UTC large
Height (km)
Speed (km/s)
/
Latitude / Longitude
Inclination (degrees)
Orbital Period (minutes)
Azimuth
Elevation
Range (km)
Doppler Factor

Next 0 passes for location: London (51.5072 / 0.1276)

Sorry there are no passes over London.